Showing default

ESSA 1 (OT-3), 1982

Orbit data source: Space-Track

ESSA 1 (OT-3), 1982 is a payload satellite owned by ESSA (US) in SSO that was launched on Thu, 03 Feb 1966 UTC via a THOR DELTA C launch vehicle from the Air Force Eastern Test Range (AFETR). Payloads include a variety of satellites, spacecraft, and rockets equipped with specific instruments for various scientific and technological missions. These include communications satellites like Starlink; space stations such as the ISS; scientific satellites like the Hubble; Earth observation satellites from companies like Planet Labs, Umbra, and HawkEye 360; GPS; miniature CubeSats for education and research; and military/defense satellites.

Loading next visibility...
ESSA 1 (OT-3) details
Identifier
1982, 1966-008A
Orbit
SSO
Last TLE update22 hours ago
Origin
Flag of USESSA (US)
ManufacturerRCA/East Windsor
MissionNon-operational Civil Weather
Bus & MotorTIROS I, Unknown motor
Mass138 kg wet, 138 kg dry
Launch date (UTC)
1966-02-03 (59 years ago)
Launch vehicle
THOR DELTA C
Launch site
Air Force Eastern Test Range (AFETR)
Object type
Payload
Rocket body
Debris
Shape & HBRCyl, 1.07 m
Radar Cross Section0.920 m², Medium (>0.1 m² and < 1m²)

Expand to show TLE details & history

TLE from 22 hours ago
0 ESSA 1 (OT-3)
1 01982U 66008A   24355.71188482  .00000379  00000-0  10930-3 0  9993
2 01982  97.8898  54.9999 0079854 343.6586  16.2035 14.47945476 79288
Epoch: 2024-12-20T17:05Z
Definitive object data (Epoch: 2024-12-20T17:05:06.848Z)
Latitude-0.00008°
Longitude68.94791°
Altitude680.845 km
Speed7.545 km/s
True Right ascension03h 39m 59s
True Declination0° 00' 00"
Sunlit
Object was in full shadow at TLE epoch
Visualization TLE readout
Latitude79.17609°
Longitude23.6682°
Altitude756.672 km
Speed7.477 km/s
Apparent Right ascension01h 45m 31s
Apparent Declination25° 17' 14"
Sunlit
Object is in daylight
Visualization observer readout
Local Sidereal Time14:03:33
Azimuth4.488° NNE
Elevation-24.661°
Doppler factor1
Orbital elements
Apogee altitude786.207 km
Perigee altitude672.693 km
Semi-major axis7,107.587 km
Eccentricity0.0079854
Inclination97.8898°
RAAN54.9999°
Arg. of periapsis343.6586°
True anomaly16.46132°
Mean anomaly16.2035°
Eccentric anomaly16.33216°
Mean motion3.6221 °/min
BSTAR0.0001093
Orbital period99.39 mins
Loading maneuver chart data...
Loading historical data...
Loading historical data...
Loading historical data...
Loading historical data...
Loading historical data...
Loading historical data...
Loading historical data...

ESSA 1 (OT-3) Visibility forecast

Observer location: undefined°, undefined

Span
Click to sort rows by Start time (UTC) header in descending order
Start Az.
Max El. time (UTC)
Max El. Az.
Max El.
End time (UTC)
End Az.
9 mins2024-12-21 16:52:20.287Z17.663° NNE2024-12-21 16:57:20.287Z137.763° SSE42.812°2024-12-21 17:01:20.287Z185.063° SSW
4 mins2024-12-21 18:33:20.287Z314.895° NW2024-12-21 18:34:20.287Z302.201° NW14.081°2024-12-21 18:37:20.287Z266.19° W
8 mins2024-12-22 04:02:20.287Z158.007° S2024-12-22 04:06:20.287Z31.336° NE42.901°2024-12-22 04:10:20.287Z351.704° N
|